Probability
12 10 8 8 9 10 10 10 9 7 4 2 1 1 0 0 0 0 0 0 0 0 0 0 0 0 0 0 0 0 0 0 0 0 0 0 0 0
11 10 8 8 9 9 9 9 9 8 6 3 1 0 0 0 0 0 0 0 0 0 0 0 0 0 0 0 0 0 0 0 0 0 0 0 0 0
10 9 7 7 7 7 7 7 7 7 6 3 2 0 0 0 0 0 0 0 0 0 0 0 0 0 0 0 0 0 0 0 0 0 0 0 0 0
8 7 6 5 5 6 5 4 4 4 4 3 1 0 0 0 0 0 0 0 0 0 0 0 0 0 0 0 0 0 0 0 0 0 0 0 0 0
7 6 5 4 4 4 4 3 3 3 3 2 1 0 0 0 0 0 0 0 0 1 0 0 0 0 0 0 0 0 0 0 0 0 0 0 0 0
6 5 4 4 4 4 3 3 3 3 3 2 1 0 0 0 0 0 0 0 0 0 0 0 0 0 0 0 0 0 0 0 0 0 0 0 0 0
5 4 4 4 4 4 4 3 3 3 3 2 1 0 0 0 0 0 0 0 0 0 0 0 0 0 0 0 0 0 0 0 0 0 0 0 0 0
2 2 3 3 3 3 3 3 3 3 3 2 1 0 0 0 0 0 0 0 1 1 1 0 0 0 1 1 1 0 0 0 0 0 0 0 0 0
0 1 1 1 1 1 3 4 4 3 3 2 1 0 0 0 0 0 1 1 2 2 2 2 2 2 2 2 2 1 0 0 0 0 0 0 0 0
0 0 0 1 1 1 3 5 5 4 3 2 1 0 0 0 0 1 2 3 3 3 3 3 3 3 3 3 3 2 1 0 0 0 0 0 0 0
0 0 0 0 1 1 3 4 5 4 3 1 0 0 0 0 0 1 2 3 4 3 3 3 3 3 3 3 2 2 1 0 0 0 0 0 0 0
0 0 0 0 0 1 1 2 3 3 2 1 0 0 0 0 0 0 1 3 4 4 3 3 3 3 3 2 1 1 0 0 0 0 0 0 0 0
0 0 0 0 0 0 0 0 1 1 1 0 0 0 0 0 0 1 1 3 4 3 3 3 3 3 3 3 2 1 0 0 0 0 0 1 1 0
0 0 0 0 0 0 0 0 0 0 0 0 0 0 0 1 1 2 3 3 3 3 3 3 3 3 3 3 3 2 0 0 0 0 0 1 1 1
0 0 0 0 0 0 0 0 0 0 0 0 0 1 1 2 3 3 3 2 2 2 2 2 2 2 3 3 2 1 0 0 0 0 0 1 1 1
0 0 0 0 0 0 0 0 0 0 0 0 1 2 3 3 3 2 1 1 1 1 1 1 1 1 1 2 1 0 0 0 0 0 0 0 0 1
0 0 0 0 0 0 0 0 1 1 1 1 2 2 2 2 1 1 0 0 0 0 0 0 0 0 0 0 0 0 0 0 0 0 0 1 0 0
0 0 0 0 0 0 1 1 2 2 2 2 2 1 1 1 0 0 0 0 0 0 0 0 0 0 0 0 0 0 0 0 0 0 0 1 1 1
0 0 1 1 1 1 2 2 2 2 1 1 1 0 0 0 0 0 0 0 0 0 0 0 0 0 0 0 0 0 0 0 0 0 0 1 2 2
0 0 1 2 2 2 2 1 1 1 0 0 0 0 0 0 0 0 0 0 0 0 0 0 0 0 0 0 0 0 0 0 0 0 0 1 2 3
0 0 1 1 1 1 1 0 0 0 0 0 0 0 0 0 0 0 0 0 0 0 0 0 0 0 0 0 0 0 0 0 0 0 0 0 1 2
0 0 0 0 0 0 0 0 0 0 0 0 0 0 0 0 0 0 0 0 0 0 0 0 0 0 0 0 0 0 0 0 0 0 0 0 0 1
0 0 0 0 0 0 0 0 0 0 0 0 0 0 0 0 0 0 0 0 0 0 0 0 0 0 0 0 0 0 0 0 0 0 0 0 0 0
Wind_Speed
1 1 1 1 2 2 3 4 4 3 2 2 1 2 1 1 2 2 2 3 4 4 3 3 3 3 3 3 4 4 4 4 2 2 1 1 1 1
1 1 1 1 1 1 2 2 3 4 2 2 2 2 2 2 3 2 2 3 4 4 4 3 3 3 3 3 3 3 3 3 3 3 3 2 2 1
1 1 1 1 1 1 1 1 2 2 3 1 1 1 2 2 2 2 1 1 2 4 5 4 4 3 3 3 2 2 2 2 2 2 2 2 2 2
1 1 1 1 1 1 1 1 1 2 3 2 1 1 2 3 2 2 2 2 2 3 4 4 4 3 3 3 2 2 1 2 1 2 2 2 2 1
2 2 1 2 1 1 1 1 1 1 2 2 2 1 1 2 2 1 1 1 2 3 4 5 5 4 3 3 2 2 2 1 1 1 1 1 1 1
1 1 1 2 2 2 2 2 2 2 2 2 1 1 1 1 2 2 1 1 2 1 2 3 4 4 4 4 4 3 3 2 1 1 1 1 1 1
0 1 1 2 2 2 2 2 3 2 2 2 1 1 1 1 2 2 2 1 1 1 1 1 1 1 2 4 5 4 4 3 3 2 2 1 1 0
1 0 1 1 1 1 2 3 4 4 4 3 2 3 3 3 2 3 2 1 2 2 2 2 1 2 2 2 4 6 6 5 5 4 3 3 2 2
2 1 1 1 1 1 1 0 1 3 5 5 4 4 4 4 4 4 3 3 4 3 2 2 1 2 3 3 6 6 6 6 6 5 4 4 4 3
2 2 2 1 1 1 1 1 1 1 2 3 4 4 4 3 4 5 4 2 1 1 2 2 2 2 2 2 4 6 6 6 6 5 5 5 5 4
1 2 3 2 2 2 2 1 1 2 2 1 2 3 3 3 3 2 2 2 1 2 2 2 2 1 1 2 3 5 6 7 6 6 6 6 5 3
1 1 3 3 3 3 3 2 2 3 1 1 2 2 1 2 3 4 4 4 2 2 2 2 2 2 1 2 2 2 3 5 6 6 6 6 5 2
2 2 2 4 3 4 4 4 5 3 2 1 1 1 1 2 2 2 3 4 4 3 3 3 2 2 2 1 2 2 3 2 2 3 5 6 5 5
3 2 2 3 4 3 3 3 4 2 1 1 1 2 2 2 3 3 3 3 4 4 4 4 3 4 3 2 2 2 2 2 2 3 2 3 4 6
3 4 3 3 3 2 3 3 2 1 1 1 2 3 3 3 2 1 1 1 1 2 3 3 3 3 3 3 3 2 2 2 3 3 3 3 3 3
2 3 3 2 2 2 2 2 2 2 3 3 3 3 2 1 1 1 1 0 0 2 2 2 3 4 3 3 3 3 3 3 3 3 3 2 2 3
2 1 0 0 1 1 2 2 2 2 2 3 2 2 1 1 1 1 1 1 1 2 2 2 1 1 3 3 3 3 3 3 3 3 3 2 3 4
4 2 2 2 3 3 3 3 3 3 3 3 3 3 3 3 2 1 1 1 2 2 2 2 0 1 2 2 3 3 2 3 2 2 3 3 3 3
3 3 3 4 4 4 4 4 4 4 3 3 3 3 3 3 2 2 2 1 2 2 2 2 1 2 2 3 4 3 3 2 2 2 2 3 4 4
3 4 4 4 4 4 4 4 4 3 3 3 3 3 3 3 3 3 3 3 2 2 2 2 2 3 4 4 3 3 3 3 3 2 2 2 2 2
4 4 4 4 4 4 4 4 3 3 3 3 3 3 3 3 3 3 3 4 3 2 3 4 4 5 2 1 0 2 2 3 4 3 3 2 1 1
4 4 4 4 4 3 3 3 2 2 3 3 3 3 3 3 3 4 3 3 3 3 3 3 2 1 1 2 3 3 3 2 2 3 3 5 4 4
5 5 4 4 4 3 3 3 3 3 3 3 2 3 3 3 3 3 3 3 2 2 2 1 1 1 1 2 3 2 2 2 1 1 2 3 5 6
Wind_Direction
184 166 180 203 176 173 166 164 162 181 234 234 225 243 225 196 185 184 184 153 149 146 142 141 135 118 102 89 80 73 65 64 70 78 94 139 167 197
166 147 179 202 168 169 171 173 164 167 193 218 209 214 210 190 171 172 177 151 157 160 157 153 145 133 120 105 92 79 70 68 72 78 74 90 126 153
168 156 189 171 152 155 158 155 158 152 169 231 209 189 180 183 168 177 174 176 181 179 173 161 153 149 140 128 107 91 85 83 83 81 78 71 91 110
164 144 182 157 131 152 149 160 168 161 156 185 214 191 197 194 186 185 185 178 193 189 186 177 178 176 162 146 130 116 109 103 97 93 83 76 75 88
163 163 187 146 163 180 168 164 172 149 141 162 202 203 198 186 165 189 183 200 211 198 190 192 195 191 178 164 163 154 150 136 108 90 83 79 73 62
156 164 180 173 189 186 179 169 153 134 130 149 177 187 195 197 150 177 210 253 239 226 206 194 192 201 202 199 200 196 188 182 172 156 134 102 64 37
138 184 188 168 169 180 178 178 162 157 155 161 170 171 205 180 202 197 196 220 271 230 200 218 197 219 226 223 220 214 203 192 189 188 184 184 196 233
175 249 219 156 141 137 168 184 174 171 180 178 191 197 217 209 197 187 173 167 258 238 166 241 190 229 241 227 220 213 210 207 202 200 200 202 203 209
184 187 198 129 102 84 73 132 193 191 185 184 195 212 207 206 189 190 188 192 215 212 158 242 222 234 243 226 214 212 210 213 214 213 215 214 212 212
193 182 169 165 195 156 130 55 8 276 220 194 197 215 218 215 200 196 195 190 260 223 158 199 233 235 241 237 229 220 215 216 219 221 220 218 218 220
213 190 176 184 212 168 138 149 309 300 291 217 209 226 230 219 193 159 164 160 223 248 198 178 210 225 263 260 249 229 223 223 223 225 225 222 218 214
216 217 201 200 211 186 178 187 227 257 270 316 321 319 298 259 205 186 185 180 186 236 219 174 192 152 256 269 248 236 227 231 227 227 226 226 220 206
199 223 235 213 211 207 197 204 222 226 225 224 251 277 291 278 252 220 193 181 187 223 212 172 181 175 184 236 262 234 215 218 221 236 232 233 222 199
203 217 230 229 222 219 220 226 222 213 204 201 222 246 246 250 253 242 223 213 206 212 208 177 178 180 178 203 244 242 225 217 205 221 228 234 232 224
204 209 214 231 233 238 244 233 209 191 189 206 229 239 236 235 247 270 277 245 269 248 213 194 178 176 177 196 212 213 222 233 211 212 216 219 224 218
207 222 216 232 239 255 264 252 225 211 205 220 232 240 237 217 223 225 229 199 336 305 292 229 195 180 198 216 204 220 210 211 211 212 209 223 228 217
161 121 50 311 282 277 269 266 253 237 232 236 232 234 229 216 229 221 201 178 197 253 290 309 264 205 202 196 212 228 220 227 218 199 191 223 243 229
148 172 209 221 226 231 236 246 244 237 233 229 228 221 217 219 224 213 194 194 216 237 248 260 237 28 3 308 221 213 216 225 224 199 186 203 249 245
169 206 216 222 229 231 231 233 238 237 223 216 221 222 215 211 204 206 208 212 231 241 247 236 193 171 203 265 285 225 199 213 193 201 207 205 230 243
206 212 220 224 227 230 231 234 241 241 222 215 220 222 213 201 199 204 207 209 221 236 254 252 222 207 209 224 248 281 226 196 185 200 219 220 252 279
216 219 220 223 229 231 234 234 234 234 227 216 217 218 212 198 203 209 211 221 217 221 236 247 245 232 212 131 273 286 285 224 198 194 189 185 229 262
223 223 223 221 225 233 239 232 226 229 224 215 213 212 207 195 202 210 207 206 215 221 237 254 261 195 166 187 223 251 276 295 265 235 223 192 187 204
222 223 221 221 221 216 220 222 219 222 219 212 209 209 201 196 199 202 209 212 214 224 230 249 270 199 206 203 219 240 253 268 281 332 301 267 227 225